Location: The Saddle
(36.8333°N, 80.3417°W)
Time: 06:50:40
(UTC-04:00)

Courier 1B - Pass Details

Date: 31 January 2022
Orbit: 962 x 1209 km, 28.3° (Epoch: 22 May)

Event Time Altitude Azimuth Distance (km) Brightness Sun altitude
Rises 19:05:57 0° 256° (WSW) 3,971 12.5 -16.3°
Reaches altitude 10° 19:08:49 10° 250° (WSW) 3,044 11.3 -16.8°
Maximum altitude 19:15:57 45° 180° (S) 1,562 8.6 -18.3°
Enters shadow 19:20:56 21° 119° (ESE) 2,422 9.1 -19.2°
